Main page
METAR-TAF:

METAR-TAF

Airports :

Pembrey Airport

Pembrey, Wales

latitude: 51-43N, longitude: 004-22W, elevation: 3 m

Current weather observation

The report was made 55 minutes ago, at 09:50 UTC
Wind 19 kt from the South
Temperature 13°C
Humidity 82%
Pressure 993 hPa
Visibility: 6000 m

METAR: EGOP 090950Z AUTO 18019KT 6000 // BKN021/// SCT035/// 13/10 Q0993

Time: 11:45 (10:45 UTC)


TAF: missing

Weather observations and forecasts of more than 4000 airports (METAR and TAF reports).

The available stations are represented by yellow and red dots on the map.

Hover mouse over dot to see the name of the station.

Then click to see weather observations and forecasts.

To change the map : click on the green buttons with a black cross to zoom in, on the green button with a dash to zoom out, or on the green arrows for adjacent maps.


METAR-TAF: